Location: Enborne
(51.3833°N, 1.3667°W)
Time: 21:42:31
(UTC+00:00)

SPOT 5 - Pass Details

Date: 18 September 2020
Orbit: 623 x 814 km, 98.3° (Epoch: 21 October)

Event Time Altitude Azimuth Distance (km) Brightness Sun altitude
Exits shadow 22:19:23 39° 298° (WNW) 1,168 4.2 -33.1°
Drops below altitude 10° 22:23:19 10° 335° (NNW) 2,393 6.4 -33.4°
Sets 22:25:48 0° 342° (NNW) 3,341 7.3 -33.6°
